#timestamp,LO_Frequency,Hit,StdDev 
1672372815.8,286047005.9,N
1672372835.6,286047005.2,N
1672372855.4,286047001.5,N
1672372875.3,286047001.9,N
1672372895.1,286047001.9,N
1672372915.9,286047001.8,N
1672372935.7,286047005.8,N
1672372955.5,286047003.0,N
1672372975.4,286047003.4,N
1672372995.2,286047003.5,N
1672373015.1,286047005.7,Y
1672373016.0,286047005.7,P
1672373035.8,286046999.8,N
1672373055.6,286047002.8,N
1672373075.5,286047002.0,N
1672373095.3,286046999.8,N
1672373115.1,286047001.0,N
1672373135.9,286047000.8,N
1672373155.7,286047002.5,N
1672373175.6,286046999.5,N
1672373195.4,286046998.3,N
1672373215.2,286046999.5,N
1672373235.1,286046999.5,N
1672373236.0,286046999.5,N
1672373255.8,286046997.2,N
1672373275.7,286046996.9,N
1672373295.5,286046996.7,N
1672373315.3,286046999.1,N
1672373335.2,286046999.1,N
1672373355.0,286047001.2,N
1672373355.9,286047001.2,N
1672373375.8,286046998.2,N
1672373395.6,286046998.9,N
1672373415.4,286046998.3,N
1672373435.3,286047000.5,N
1672373455.1,286046998.4,N
1672373475.8,286046998.9,N
1672373495.7,286046996.9,N
1672373515.5,286046999.0,N
1672373535.4,286046998.5,N
1672373555.2,286046998.5,N
1672373575.0,286046999.9,N
1672373575.9,286046999.9,N
1672373595.8,286046998.3,N
1672373615.6,286047001.0,N
1672373635.4,286046998.8,N
1672373655.3,286046998.2,N
1672373675.1,286046999.5,N
1672373695.9,286046999.6,N
1672373715.7,286046996.6,N
1672373735.5,286047000.6,N
1672373755.4,286046999.3,N
1672373775.2,286046999.3,N
1672373795.1,286046997.3,N
1672373796.0,286046997.3,N
1672373815.8,286046997.3,N
1672373835.6,286046997.2,N
1672373855.5,286046994.9,Y
1672373875.3,286046999.5,P
1672373895.1,286047000.1,N
1672373915.9,286047000.8,N
1672373935.7,286046998.4,N
1672373955.6,286046998.8,N
1672373975.4,286046998.2,N
1672373995.2,286046999.1,N
1672374015.1,286046997.0,Y
1672374016.0,286046997.0,P
1672374035.8,286046999.5,N
1672374055.7,286047000.8,N
1672374075.5,286047002.8,N
1672374095.3,286047002.1,N
1672374115.2,286047006.0,Y
1672374135.0,286047005.5,P
1672374135.9,286047005.5,N
1672374155.8,286047003.7,N
1672374175.6,286047000.1,N
1672374195.4,286047001.7,N
1672374215.3,286047000.3,N
1672374235.1,286047000.1,N
1672374255.8,286047002.8,N
1672374275.3,286047001.0,N
1672374295.2,286047000.0,N
1672374315.9,286047002.2,N
1672374335.7,286047001.3,N
1672374355.6,286047001.6,N
1672374375.4,286047001.1,N
1672374395.2,286046998.1,N
1672374415.1,286046998.7,N
1672374416.0,286046998.7,N
1672374435.8,286046999.4,N
1672374455.7,286046998.3,N
1672374475.5,286046998.9,N
1672374495.3,286047000.1,N
1672374515.2,286047000.7,N
1672374535.0,286047002.8,N
1672374535.9,286047002.8,N
1672374555.8,286047004.1,N
1672374575.6,286047002.0,N
1672374595.5,286047000.9,N
1672374615.3,286047001.1,N
1672374635.1,286047000.1,N
1672374655.9,286046999.8,N
1672374675.7,286047001.6,N
1672374695.5,286047003.6,N
1672374715.4,286047002.9,N
1672374735.2,286047004.8,Y
1672374755.1,286047003.3,P
1672374756.0,286047003.3,N
1672374775.8,286047004.0,P
1672374795.7,286047003.8,Y
1672374815.5,286047000.0,P
1672374835.3,286047000.1,N
1672374855.2,286046998.5,N
1672374875.0,286046996.6,N
1672374875.9,286046996.6,N
1672374895.8,286046997.4,N
1672374915.6,286046996.7,N
1672374935.4,286046997.7,N
1672374955.3,286046996.7,N
1672374975.1,286046999.1,N
1672374995.8,286046998.2,N
1672375015.7,286047001.2,N
1672375035.5,286046996.9,N
1672375055.3,286046996.5,N
1672375075.2,286046997.3,N
1672375095.0,286046996.8,N
1672375095.9,286046996.8,N
1672375115.8,286046997.4,N
1672375135.6,286046997.1,N
1672375155.4,286046997.3,N
1672375175.3,286046997.7,N
1672375195.1,286046995.5,N
1672375215.9,286046993.4,Y
1672375235.7,286046997.1,P
1672375255.5,286046997.7,P
1672375275.4,286046997.0,P
1672375295.2,286046997.7,Y
1672375315.0,286047002.1,P
1672375315.9,286047002.1,N
1672375335.8,286046998.1,N
1672375355.6,286046998.3,N
1672375375.5,286046999.2,N
1672375395.3,286047001.1,N
1672375415.1,286046998.9,N
1672375435.9,286046998.7,N
1672375455.7,286046999.5,N
1672375475.5,286046997.3,N
1672375495.4,286046999.5,N
1672375515.2,286046998.3,N
1672375535.1,286046999.8,N
1672375536.0,286046999.8,N
1672375555.8,286047001.9,N
1672375575.6,286047004.1,N
1672375595.5,286047001.4,N
1672375615.3,286047001.0,N
1672375635.1,286047001.1,N
1672375655.1,286046998.1,N
1672375656.0,286046998.1,N
1672375675.8,286047000.6,N
1672375695.7,286047000.2,N
1672375715.5,286046999.8,N
1672375735.3,286047002.5,N
1672375755.2,286047002.2,N
1672375775.9,286047002.1,N
1672375795.7,286047004.2,N
1672375815.6,286047001.7,N
1672375835.4,286047002.1,N
1672375855.2,286047002.5,N
1672375875.1,286047001.5,N
1672375876.0,286047001.5,N
1672375895.8,286047004.2,N
1672375915.7,286047004.2,N
1672375935.5,286047002.5,N
1672375955.3,286047001.5,N
1672375975.2,286047003.7,N
1672375995.0,286047001.5,N
1672375995.9,286047001.5,N
1672376015.8,286047002.2,N
1672376035.6,286047002.8,N
1672376055.4,286047001.8,N
1672376075.3,286047001.8,N
1672376095.1,286047004.1,N
1672376115.8,286047001.7,N
1672376135.7,286047002.2,N
1672376155.5,286047002.7,N
1672376175.3,286047000.5,N
1672376195.2,286046999.9,N
1672376215.0,286047000.1,N
1672376215.9,286047000.1,N
1672376235.8,286046998.5,N
1672376255.6,286046998.8,N
1672376275.4,286047000.1,N
1672376295.3,286046999.9,N
1672376315.1,286047002.1,N
1672376335.9,286047000.0,N
1672376355.7,286047001.0,N
1672376375.5,286047000.3,N
1672376395.4,286047000.1,N
